TimeEST,TemperatureF,Dew PointF,Humidity,Sea Level PressureIn,VisibilityMPH,Wind Direction,Wind SpeedMPH,Gust SpeedMPH,PrecipitationIn,Events,Conditions,WindDirDegrees,DateUTC
12:40 AM,28.4,28.4,100,30.50,0.5,Calm,Calm,-,N/A,Fog,Light Freezing Fog,0,2012-11-18 05:40:00
12:54 AM,28.9,28.0,96,30.53,0.5,Calm,Calm,-,N/A,Fog,Light Freezing Fog,0,2012-11-18 05:54:00
1:01 AM,28.4,28.4,100,30.50,0.8,Calm,Calm,-,N/A,,Overcast,0,2012-11-18 06:01:00
1:32 AM,28.4,26.6,93,30.50,0.5,Calm,Calm,-,N/A,Fog,Light Freezing Fog,0,2012-11-18 06:32:00
1:54 AM,28.0,27.0,96,30.53,0.5,Calm,Calm,-,N/A,Fog,Light Freezing Fog,0,2012-11-18 06:54:00
2:08 AM,26.6,26.6,100,30.50,0.2,Calm,Calm,-,N/A,Fog,Light Freezing Fog,0,2012-11-18 07:08:00
2:16 AM,28.4,26.6,93,30.50,1.0,Calm,Calm,-,N/A,,Mist,0,2012-11-18 07:16:00
2:20 AM,28.4,26.6,93,30.50,2.0,Calm,Calm,-,N/A,,Partly Cloudy,0,2012-11-18 07:20:00
2:41 AM,28.4,26.6,93,30.50,1.5,Calm,Calm,-,N/A,,Clear,0,2012-11-18 07:41:00
2:54 AM,28.0,27.0,96,30.53,3.0,Calm,Calm,-,N/A,,Clear,0,2012-11-18 07:54:00
3:54 AM,26.1,24.1,92,30.52,5.0,Calm,Calm,-,N/A,,Clear,0,2012-11-18 08:54:00
4:54 AM,26.1,23.0,88,30.51,6.0,ESE,3.5,-,N/A,,Clear,110,2012-11-18 09:54:00
5:54 AM,25.0,23.0,92,30.52,7.0,Calm,Calm,-,N/A,,Clear,0,2012-11-18 10:54:00
6:54 AM,26.1,24.1,92,30.51,5.0,Calm,Calm,-,N/A,,Clear,0,2012-11-18 11:54:00
7:54 AM,28.0,26.1,92,30.52,5.0,Calm,Calm,-,N/A,,Clear,0,2012-11-18 12:54:00
8:54 AM,32.0,30.9,96,30.51,2.5,South,4.6,-,N/A,,Clear,170,2012-11-18 13:54:00
9:28 AM,33.8,33.8,100,30.48,3.0,Calm,Calm,-,N/A,,Clear,0,2012-11-18 14:28:00
9:54 AM,37.0,35.1,93,30.51,4.0,SE,4.6,-,N/A,,Clear,140,2012-11-18 14:54:00
10:54 AM,44.1,36.0,73,30.51,9.0,SSE,4.6,-,N/A,,Clear,150,2012-11-18 15:54:00
11:54 AM,50.0,36.0,59,30.49,10.0,SSE,6.9,-,N/A,,Clear,150,2012-11-18 16:54:00
12:54 PM,53.1,32.0,45,30.46,10.0,SSE,5.8,-,N/A,,Clear,150,2012-11-18 17:54:00
1:54 PM,55.9,30.0,37,30.45,10.0,South,8.1,-,N/A,,Clear,190,2012-11-18 18:54:00
3:54 PM,55.9,27.0,33,30.42,10.0,South,4.6,-,N/A,,Clear,180,2012-11-18 20:54:00
4:54 PM,50.0,28.0,43,30.43,10.0,SE,4.6,-,N/A,,Clear,140,2012-11-18 21:54:00
5:54 PM,39.9,27.0,60,30.43,10.0,Calm,Calm,-,N/A,,Clear,0,2012-11-18 22:54:00
6:54 PM,35.1,26.1,70,30.43,10.0,Calm,Calm,-,N/A,,Clear,0,2012-11-18 23:54:00
7:54 PM,37.9,26.1,62,30.43,10.0,SE,5.8,-,N/A,,Clear,140,2012-11-19 00:54:00
8:54 PM,37.9,26.1,62,30.42,10.0,SE,5.8,-,N/A,,Clear,140,2012-11-19 01:54:00
9:54 PM,39.9,28.9,65,30.41,10.0,SSE,4.6,-,N/A,,Clear,160,2012-11-19 02:54:00
10:54 PM,30.9,25.0,79,30.41,10.0,Calm,Calm,-,N/A,,Clear,0,2012-11-19 03:54:00
11:54 PM,37.0,30.0,76,30.39,10.0,SSE,6.9,-,N/A,,Partly Cloudy,160,2012-11-19 04:54:00